Weather History for South Lake Tahoe, CA

Change the Weather History Date:

Friday, November 15, 2013

  Actual Average Record
Temperature  
Mean Temperature 38 °F 36 °F  
Max Temperature 48 °F 51 °F 64 °F (1998)
Min Temperature 28 °F 22 °F -5 °F (1978)
Degree Days  
Heating Degree Days 27 29  
Month to date heating degree days 331 395  
Since 1 July heating degree days 1412 1627  
Cooling Degree Days 0 0  
Month to date cooling degree days 0 0  
Year to date cooling degree days 104 31  
Moisture  
Dew Point 25 °F    
Average Humidity 58    
Maximum Humidity 78    
Minimum Humidity 38    
Precipitation  
Precipitation 0.00 in - 1.99 in (1963)
Month to date precipitation T  
Year to date precipitation 7.56  
Sea Level Pressure  
Sea Level Pressure 29.76 in    
Wind  
Wind Speed 4 mph (ESE)    
Max Wind Speed 13 mph    
Max Gust Speed 19 mph    
Visibility 10 miles    
Events      
T = Trace of Precipitation, MM = Missing Value Source: NWS Daily Summary

Daily Weather History Graph

Daily Weather History Graph

Search for Another Location

Airport:

Trip Planner

Search our weather history database for the weather conditions in past years. The results will help you decide how hot, cold, wet, or windy it might be!

Date:

Astronomy

Nov. 15, 2013 Rise Set
Actual Time 6:43 AM PST 4:45 PM PST
Civil Twilight 6:14 AM PST 5:14 PM PST
Nautical Twilight 5:42 AM PST 5:46 PM PST
Astronomical Twilight 5:10 AM PST 6:18 PM PST
Moon 3:45 PM PST (11/15) 4:45 AM PST (11/15)
Length of Visible Light 10h 59m
Length of Day
10h 02m
Waxing Gibbous, 97% of the Moon is Illuminated
Nov 15
Waxing Gibbous
Nov 17
Full
Nov 25
Last Quarter
Dec 2
New
Dec 9
First Quarter

Hourly Weather History & Observations

Time (PST) Temp. Windchill Dew Point Humidity Pressure Visibility Wind Dir Wind Speed Gust Speed Precip Events Conditions
12:53 AM 43.0 °F 37.7 °F 26.1 °F 51% 29.74 in 10.0 mi South 9.2 mph - N/A   Clear
1:53 AM 41.0 °F 36.4 °F 26.1 °F 55% 29.73 in 10.0 mi SSW 6.9 mph - N/A   Scattered Clouds
2:53 AM 39.9 °F 34.5 °F 26.1 °F 58% 29.72 in 10.0 mi SSW 8.1 mph - N/A   Scattered Clouds
3:53 AM 34.0 °F - 25.0 °F 70% 29.74 in 10.0 mi Calm Calm - N/A   Clear
4:53 AM 32.0 °F - 24.1 °F 73% 29.74 in 10.0 mi Calm Calm - N/A   Overcast
5:53 AM 34.0 °F - 25.0 °F 70% 29.76 in 10.0 mi Calm Calm - N/A   Overcast
6:53 AM 34.0 °F - 25.0 °F 70% 29.80 in 10.0 mi Calm Calm - N/A   Overcast
7:09 AM 35.1 °F - 25.0 °F 67% 29.84 in 10.0 mi Calm Calm - N/A   Overcast
7:53 AM 37.9 °F 35.5 °F 26.1 °F 62% 29.79 in 10.0 mi East 3.5 mph - N/A   Overcast
8:51 AM 39.2 °F 35.9 °F 26.6 °F 61% 29.85 in 10.0 mi East 4.6 mph - N/A   Overcast
8:53 AM 39.0 °F 35.7 °F 27.0 °F 62% 29.80 in 10.0 mi ENE 4.6 mph - N/A   Mostly Cloudy
9:53 AM 41.0 °F - 27.0 °F 57% 29.81 in 10.0 mi Calm Calm - N/A   Partly Cloudy
10:53 AM 44.1 °F 40.8 °F 26.1 °F 49% 29.81 in 10.0 mi NNE 5.8 mph - N/A   Mostly Cloudy
11:53 AM 46.9 °F - 25.0 °F 42% 29.76 in 10.0 mi Variable 4.6 mph - N/A   Partly Cloudy
12:53 PM 46.9 °F - 23.0 °F 39% 29.72 in 10.0 mi NNE 8.1 mph - N/A   Clear
1:53 PM 46.0 °F 43.9 °F 23.0 °F 40% 29.72 in 10.0 mi Variable 4.6 mph - N/A   Clear
2:53 PM 45.0 °F 43.5 °F 25.0 °F 46% 29.70 in 10.0 mi NNE 3.5 mph - N/A   Clear
3:53 PM 42.1 °F 39.2 °F 26.1 °F 53% 29.74 in 10.0 mi NNE 4.6 mph - N/A   Clear
4:53 PM 37.9 °F - 26.1 °F 62% 29.75 in 10.0 mi Calm Calm - N/A   Clear
5:53 PM 34.0 °F - 24.1 °F 67% 29.76 in 10.0 mi Calm Calm - N/A   Clear
6:53 PM 30.9 °F - 23.0 °F 72% 29.77 in 10.0 mi Calm Calm - N/A   Clear
7:53 PM 28.9 °F - 21.9 °F 75% 29.78 in 10.0 mi Calm Calm - N/A   Clear
8:53 PM 28.0 °F - 21.9 °F 78% 29.75 in 10.0 mi Calm Calm - N/A   Clear
9:53 PM 30.0 °F - 24.1 °F 79% 29.75 in 10.0 mi Calm Calm - N/A   Clear
10:53 PM 37.9 °F 30.9 °F 28.9 °F 70% 29.70 in 10.0 mi South 10.4 mph - N/A   Clear
11:53 PM 39.9 °F 34.5 °F 28.0 °F 63% 29.70 in 10.0 mi South 8.1 mph 18.4 mph N/A   Clear